GFSGBSN_sfc_rhum_336.txt.gz
RH
76 76 78 78 80 79 80 81 82 83 83 82 84 84 86 86 88 88 88 89 89 88 87 85 84 88 64 28 22 82 86 81 71 57 55 62 71 72 71 61 48 44 42 37 39 39 41
77 80 78 79 80 80 82 81 82 83 83 83 84 84 86 86 87 88 88 90 89 88 85 83 83 88 40 30 49 81 77 73 72 61 55 56 62 60 56 43 38 38 38 39 38 41 42
80 78 78 80 80 81 82 82 82 83 83 85 84 86 85 88 89 88 89 90 89 87 85 82 81 67 30 16 56 68 72 70 67 59 55 49 46 51 43 36 34 34 39 38 39 44 43
81 79 79 80 80 82 82 84 84 84 84 85 85 86 88 89 92 92 92 93 90 85 81 82 79 60 14 17 56 61 62 52 53 53 43 45 44 47 30 32 33 37 40 44 39 44 42
84 81 80 80 81 82 82 86 84 84 86 85 86 87 88 89 90 92 94 94 85 76 77 77 66 40 15 26 20 27 41 29 47 57 48 31 41 43 31 36 41 42 48 47 42 39 44
83 83 80 80 83 82 88 85 84 84 87 84 86 86 87 87 90 91 92 88 74 76 67 55 34 26 17 17 18 20 33 28 28 27 33 24 26 29 29 30 34 41 48 43 40 39 43
79 79 79 81 81 82 84 85 84 83 83 88 88 90 91 89 90 90 94 38 34 34 46 11 12 16 15 13 12 16 19 22 25 25 34 26 26 28 25 24 22 27 40 40 42 38 41
79 79 79 80 81 86 83 84 83 87 90 92 93 94 92 90 90 91 91 32 29 36 34 25 19 15 15 14 11 10 20 22 30 34 31 29 29 23 21 22 24 25 33 44 44 38 38
79 79 79 79 82 84 81 82 87 92 93 93 92 91 90 91 93 71 48 29 32 38 39 23 22 20 17 12 12 10 18 24 27 29 26 29 24 18 16 22 18 22 37 38 38 42 41
79 78 79 79 83 82 92 93 93 93 94 92 91 90 89 94 50 61 31 45 40 34 28 21 22 16 12 10 11 9 17 17 23 25 25 25 20 15 13 18 15 41 22 25 43 45 44
78 78 79 80 89 92 93 93 93 93 93 91 91 91 88 94 78 43 29 54 45 20 22 10 19 13 14 10 12 12 14 15 20 20 20 22 20 14 14 14 13 13 11 23 39 31 19
92 89 78 86 92 94 94 93 93 93 92 91 91 91 91 94 93 60 56 44 24 19 19 14 15 14 14 15 12 12 13 12 15 19 21 19 16 14 12 12 14 14 12 16 20 19 19
92 92 92 93 94 95 93 93 92 93 91 91 91 94 92 79 33 60 48 25 28 31 15 18 16 14 16 14 13 12 14 16 16 21 30 16 15 13 11 13 13 14 17 21 23 20 18
92 92 92 94 95 95 93 92 92 90 91 91 93 96 92 84 88 55 31 28 45 17 23 20 15 15 13 12 14 14 14 15 19 18 20 18 18 14 12 11 12 24 19 20 32 23 20
96 94 94 94 95 95 93 92 92 91 91 91 95 90 90 81 89 60 32 42 31 26 22 20 18 15 15 13 12 14 15 15 13 14 18 26 16 12 12 11 10 18 17 21 21 32 30
94 94 95 94 90 93 93 92 92 91 92 93 98 93 71 72 79 41 38 48 33 29 20 20 27 17 14 13 12 14 15 12 12 13 20 27 19 12 10 10 11 13 11 13 20 31 46
94 92 95 95 94 92 92 92 91 92 92 93 86 58 37 74 41 32 36 43 34 28 25 22 24 21 16 12 12 16 12 12 11 15 12 14 16 12 14 12 11 12 18 19 20 32 43
92 95 97 97 95 94 92 93 92 94 95 93 91 46 42 29 28 57 48 39 37 23 17 16 21 20 19 20 14 13 11 9 10 12 12 18 14 18 11 10 11 10 11 16 17 22 44
92 93 94 94 94 92 92 92 93 94 94 93 97 92 65 37 28 37 40 27 22 21 20 18 19 18 21 22 23 14 12 9 10 11 12 12 16 18 13 19 13 12 17 22 25 37 43
84 84 85 88 89 89 90 92 93 94 93 93 91 68 62 48 49 49 41 28 25 21 19 18 17 17 22 20 21 21 20 15 10 9 43 21 17 15 15 12 13 16 15 19 23 27 33
80 79 80 83 86 87 89 91 92 92 91 98 93 76 84 96 82 83 83 53 34 38 27 21 23 19 19 25 24 21 20 20 19 53 25 10 12 15 12 11 14 13 13 15 18 22 20
75 77 79 81 81 84 86 88 90 87 90 96 96 96 95 95 89 88 82 66 51 46 39 36 29 25 24 24 20 21 19 28 23 32 14 15 12 15 13 16 16 15 15 15 16 25 26
72 72 76 75 80 81 84 85 82 79 91 99 98 95 98 92 91 91 85 69 58 54 49 31 29 28 22 20 17 16 16 21 33 29 16 14 18 18 14 19 21 16 13 13 16 21 29
69 70 71 72 72 73 74 74 78 75 92 86 80 96 96 92 97 85 78 74 70 52 55 44 42 30 23 25 23 35 38 29 29 28 19 18 19 23 20 36 24 12 18 18 15 19 29
68 68 69 70 71 73 75 72 73 86 89 89 72 94 96 95 92 80 76 76 76 55 57 52 42 26 36 33 31 29 32 38 27 25 27 18 25 31 22 23 18 18 22 18 20 16 22
66 68 70 69 70 72 75 73 76 84 87 76 98 80 98 99 95 74 82 84 91 74 64 50 41 41 38 39 36 33 31 27 33 31 34 28 24 22 38 22 21 18 20 28 21 24 28
65 67 70 70 72 71 70 72 76 79 85 91 92 91 98 99 89 91 94 90 85 77 74 63 47 45 43 43 44 46 39 41 35 32 34 36 38 27 41 28 25 24 33 30 27 23 34
72 75 71 78 80 79 79 79 78 78 81 93 95 94 92 97 92 78 68 89 87 80 78 62 58 48 48 52 44 49 46 46 48 44 47 32 34 36 50 45 29 40 39 25 30 54 50
70 72 75 76 76 75 75 75 79 84 83 86 94 78 78 99 91 85 66 54 57 66 74 70 62 54 53 54 58 63 48 53 50 40 61 43 40 44 38 40 48 57 47 46 45 47 50

GFSGBSN_sfc_rhum_339.txt.gz
RH
77 78 79 79 80 81 80 82 81 83 82 81 84 85 84 86 88 88 88 88 88 88 87 85 85 88 53 17 16 66 83 73 51 44 45 47 48 51 38 40 41 32 32 31 33 34 33
79 82 79 79 82 80 81 82 81 83 82 85 83 86 88 86 88 92 89 90 90 88 86 84 83 88 23 19 44 59 56 52 42 41 43 44 43 44 42 33 34 29 29 30 32 34 35
78 81 81 80 80 81 82 84 82 83 83 85 84 86 87 86 88 89 92 94 93 88 84 82 81 59 15 14 44 53 49 44 49 40 43 42 41 33 31 26 26 27 28 27 32 35 36
84 79 79 83 81 84 86 83 84 84 85 83 85 85 85 87 86 88 91 90 89 84 81 80 77 38 11 25 51 55 46 43 44 46 43 31 37 37 33 23 26 27 27 31 30 35 34
82 78 84 82 82 83 83 83 85 82 85 88 90 91 91 89 89 90 90 91 86 76 75 76 39 20 12 54 31 34 34 21 36 40 42 31 32 35 22 26 27 29 30 31 31 31 33
79 79 79 80 80 82 86 85 85 88 90 92 92 92 91 90 89 91 92 90 73 67 56 46 27 17 13 13 14 28 33 25 27 35 35 32 28 19 18 22 20 21 31 32 29 28 32
79 79 79 80 82 80 84 85 88 91 93 91 90 89 89 89 90 90 74 23 22 17 20 7 8 11 11 9 8 14 24 23 20 19 22 18 17 17 16 18 17 17 21 24 30 28 29
79 79 79 83 79 85 90 92 92 93 91 90 89 89 89 90 91 93 65 21 22 21 22 18 19 15 12 10 10 8 16 17 19 19 20 18 17 14 15 15 18 18 20 21 32 31 28
78 78 80 78 89 92 93 92 92 93 90 90 89 89 88 90 92 53 30 23 25 22 22 18 17 16 13 10 11 10 14 16 19 22 20 20 15 15 14 12 14 14 15 26 27 32 29
77 88 83 87 91 94 93 92 92 92 90 89 89 89 90 94 46 44 20 26 30 24 19 14 14 12 10 9 10 7 12 14 17 18 19 17 15 13 11 10 10 10 14 22 30 27 25
92 90 84 92 94 94 93 92 92 92 90 91 92 88 88 91 56 27 21 32 26 16 14 9 13 10 10 8 9 8 12 12 16 16 15 15 12 12 12 9 10 11 17 25 29 22 17
92 92 92 93 94 95 93 92 92 91 90 90 90 92 88 76 67 37 36 28 18 15 16 9 10 12 11 8 8 9 10 10 12 15 14 14 12 10 10 8 9 9 10 14 16 14 16
96 93 93 94 94 94 93 92 91 90 90 90 90 94 89 65 22 42 35 18 20 19 12 12 10 9 10 10 9 9 11 12 15 18 17 14 12 9 8 9 8 8 8 13 13 16 12
94 95 95 95 94 90 92 92 91 90 89 89 93 95 86 68 58 45 22 20 27 14 14 12 12 9 10 9 9 9 11 12 12 12 14 16 16 10 8 9 10 9 7 11 19 14 13
92 94 90 94 94 88 91 92 92 90 90 89 93 58 52 47 58 52 22 25 20 19 15 15 13 10 10 9 9 10 10 10 10 10 14 14 14 8 8 7 8 11 11 8 10 14 12
90 93 95 96 96 94 92 91 90 90 90 91 80 54 36 47 55 26 21 31 23 16 17 14 17 11 12 10 9 10 11 10 9 9 9 13 15 9 7 7 8 8 8 8 12 21 20
91 93 94 94 94 93 91 91 90 91 91 93 52 35 34 50 27 23 17 24 24 21 21 15 14 12 13 10 10 10 10 9 8 9 10 9 10 11 8 8 8 9 9 11 11 14 16
87 87 89 90 90 90 90 91 91 93 94 82 61 30 36 24 22 33 24 26 36 18 13 12 13 12 13 13 11 11 10 8 7 9 10 9 9 14 10 8 8 8 8 8 9 20 23
84 82 81 84 83 88 89 91 92 93 93 87 72 59 40 27 22 20 23 21 19 14 15 13 12 12 14 13 17 13 10 7 8 9 11 9 12 14 10 7 8 8 8 8 9 13 27
80 76 77 78 86 87 88 89 91 89 89 84 65 44 42 38 33 33 50 38 18 15 15 15 15 12 12 11 10 13 14 11 8 8 46 19 8 12 13 11 9 11 10 11 7 11 14
75 76 75 78 82 85 86 86 86 85 87 86 68 62 69 55 52 50 56 49 33 29 20 17 20 15 14 14 13 16 13 12 10 38 18 7 9 12 10 9 8 8 8 11 11 8 10
74 72 73 75 76 78 80 77 77 82 88 72 70 71 65 62 60 68 67 54 44 33 39 30 25 19 18 18 13 16 16 17 17 18 13 8 14 14 11 8 8 7 8 9 10 14 14
70 71 72 73 73 73 75 74 82 84 84 78 81 73 79 72 64 71 65 57 52 50 41 38 37 34 29 23 18 14 12 12 12 18 11 10 12 16 14 10 12 12 10 10 10 12 9
70 69 69 71 72 75 76 80 83 85 86 69 70 74 84 64 66 66 66 66 64 57 56 40 37 45 29 23 19 16 15 14 15 13 12 16 16 17 12 16 15 7 9 8 9 8 11
68 71 73 72 70 70 73 75 80 82 85 72 69 78 87 76 66 64 54 59 60 56 53 41 35 33 26 29 22 22 22 21 19 19 18 10 16 20 19 14 13 9 12 12 14 11 11
65 70 73 72 72 72 72 74 75 84 83 70 71 73 94 97 63 64 74 70 74 68 56 49 34 30 31 29 25 36 23 22 24 24 16 13 18 17 24 16 15 10 12 15 12 12 14
69 71 72 73 75 75 74 76 78 79 80 85 68 75 99 95 63 67 67 70 65 72 76 58 48 39 28 30 29 29 21 24 30 30 28 24 24 20 22 17 14 16 20 16 15 12 16
71 69 70 74 75 74 74 78 74 78 84 85 69 70 82 94 80 64 59 66 64 70 89 66 52 40 37 36 30 31 32 32 30 33 32 31 28 23 28 25 23 29 26 20 25 25 24
68 68 70 72 74 74 76 77 76 79 82 86 78 73 87 100 90 67 63 56 56 58 86 69 55 56 43 40 40 40 34 36 37 32 37 31 26 27 27 23 40 39 38 34 30 33 34

GFSGBSN_sfc_rhum_342.txt.gz
RH
82 82 82 82 82 82 81 82 82 83 82 84 84 84 85 85 86 86 87 90 90 89 88 86 84 88 37 15 15 41 85 74 42 32 29 27 24 24 22 22 23 19 24 24 24 26 24
82 82 82 82 82 84 87 82 84 84 84 84 86 86 87 87 87 86 86 89 90 88 87 84 82 89 17 15 24 38 36 38 28 28 26 27 25 25 21 19 22 21 22 24 25 27 26
81 78 82 81 83 84 86 86 85 85 86 88 90 91 91 91 90 90 89 89 89 86 85 82 81 37 10 12 23 27 29 28 25 23 23 24 24 24 21 19 19 21 22 23 25 27 29
82 81 81 80 84 85 87 86 86 87 90 92 92 91 89 88 88 88 90 92 89 85 82 80 78 20 12 19 22 27 24 26 26 25 26 23 22 24 22 18 19 21 20 20 24 27 28
81 84 84 83 82 84 85 87 88 91 92 90 89 88 88 88 88 89 90 90 86 80 76 71 27 12 13 43 23 18 22 16 21 24 25 23 22 18 15 17 18 19 16 19 22 23 23
82 83 79 80 81 87 90 91 91 92 89 89 88 88 89 88 90 89 92 90 69 68 52 27 15 11 10 13 10 15 20 15 16 20 23 21 16 11 11 12 15 16 13 17 18 22 24
82 84 84 84 89 92 91 91 91 91 89 88 89 88 88 90 91 92 54 15 17 12 10 4 6 9 10 8 8 13 17 17 14 17 14 15 13 12 10 11 11 11 12 14 17 19 22
77 83 82 85 91 92 91 90 91 91 89 88 89 88 90 91 93 92 45 12 16 15 12 7 6 6 6 7 9 9 13 16 17 15 12 14 14 10 10 9 9 11 12 12 18 20 21
83 83 84 89 93 93 92 90 91 91 91 90 90 90 89 91 91 50 17 15 15 14 13 8 8 6 6 7 10 9 13 14 14 14 12 14 12 10 10 9 10 10 9 11 13 21 20
91 91 92 92 93 94 92 91 90 90 90 90 90 90 93 93 48 18 14 16 13 15 10 7 8 7 7 6 10 8 8 11 12 14 12 12 10 10 10 9 8 8 10 12 16 15 13
93 92 92 93 93 92 92 92 91 90 89 89 89 89 91 98 31 13 15 14 13 13 9 7 8 8 6 6 10 9 7 11 13 12 12 13 11 10 10 9 7 9 13 12 13 12 10
94 94 94 94 93 90 90 92 91 90 89 88 88 90 91 53 31 17 16 14 14 12 9 5 7 8 8 7 7 8 9 9 10 10 11 10 9 9 9 7 7 8 10 12 11 9 10
91 93 90 89 93 90 88 91 90 89 88 88 87 92 80 38 15 20 16 14 13 12 6 6 7 7 7 6 6 8 11 12 13 15 14 11 10 9 9 9 7 7 7 9 11 10 10
89 92 88 92 95 94 94 91 89 88 89 88 91 92 74 35 27 25 13 16 17 8 7 7 8 7 7 6 6 6 10 12 10 9 9 12 12 9 8 9 9 8 6 8 18 11 9
90 92 93 94 94 93 91 89 89 89 88 88 91 23 23 21 25 27 13 17 13 10 6 7 7 8 8 6 6 6 8 10 9 9 12 9 11 8 8 7 8 9 9 5 6 7 8
88 88 87 89 89 90 90 89 89 89 88 87 41 25 19 24 26 19 12 18 10 11 12 10 8 7 8 8 7 6 7 7 8 7 7 8 12 8 7 6 6 7 6 7 7 16 16
82 82 82 84 86 88 88 88 89 89 88 87 34 22 22 20 17 14 12 10 10 10 14 11 10 10 8 9 8 6 6 6 6 6 7 6 8 10 7 8 9 8 8 7 6 7 11
82 82 80 79 78 86 88 88 89 88 90 56 30 20 23 18 15 14 11 10 25 10 11 12 10 11 10 9 10 8 6 6 5 6 8 7 7 10 9 7 6 6 7 6 9 12 8
77 80 82 81 84 84 85 86 86 87 89 52 35 28 20 18 16 13 12 12 10 8 9 11 11 9 9 10 14 11 8 5 5 6 8 6 8 10 8 7 7 7 6 5 4 5 11
73 76 77 78 81 81 80 81 83 85 86 64 39 26 22 24 20 18 22 22 17 9 9 8 11 10 10 10 9 11 10 8 6 5 38 16 6 8 9 10 7 8 6 6 4 6 7
73 73 72 71 73 79 78 76 81 82 83 64 34 37 44 27 25 31 30 29 26 20 11 10 12 11 12 14 10 10 9 8 6 26 11 6 8 8 7 6 6 6 6 6 7 6 7
72 73 74 75 72 74 79 81 79 83 83 42 41 40 32 33 30 34 35 29 28 24 18 19 16 10 11 12 11 11 9 10 12 13 11 5 9 8 9 6 6 7 5 5 6 6 6
72 72 72 72 73 74 75 82 84 82 74 36 40 40 46 40 29 31 29 33 35 38 34 23 22 31 27 20 14 11 7 9 8 12 12 8 7 9 11 7 7 8 7 6 6 6 6
71 70 73 74 69 71 74 77 81 84 82 46 46 47 46 32 30 34 36 35 35 36 45 36 32 37 26 22 20 16 12 10 11 10 9 12 10 8 10 9 14 6 4 5 6 5 5
70 72 72 72 73 76 77 78 78 81 83 53 49 56 57 40 30 34 35 35 34 34 39 38 31 27 22 26 28 23 14 14 12 12 10 9 11 11 14 12 10 6 8 6 7 7 5
72 72 74 72 72 74 72 72 79 82 80 57 48 59 64 79 32 45 60 49 47 40 34 31 26 24 24 27 25 32 18 15 16 17 11 9 11 13 14 14 14 8 5 4 5 8 5
71 69 71 73 72 73 73 73 76 77 85 69 51 57 93 69 38 39 44 47 42 47 44 38 46 35 24 28 27 20 17 12 17 21 22 18 18 18 17 14 9 10 9 8 13 9 6
71 67 72 72 73 71 70 73 75 78 81 71 52 45 62 67 43 38 35 39 39 40 53 48 53 36 32 36 25 19 16 15 16 16 19 20 21 16 16 19 19 15 15 14 20 17 17
71 72 74 75 74 74 71 71 73 77 80 83 61 46 76 99 59 39 39 40 40 41 49 59 59 64 40 37 31 28 22 22 20 22 27 19 15 15 15 15 29 26 26 24 20 22 23

GFSGBSN_sfc_rhum_345.txt.gz
RH
81 78 81 82 84 85 85 85 84 86 86 86 88 90 90 90 90 89 88 88 88 88 86 85 85 87 30 17 19 34 85 76 38 31 21 19 15 16 14 14 12 13 17 17 19 18 16
81 82 80 83 82 86 86 86 86 88 90 91 90 89 88 87 87 87 87 89 90 88 86 83 83 89 22 14 20 30 27 32 23 22 18 16 16 17 15 14 14 14 15 17 19 19 20
83 84 83 84 85 86 87 88 89 91 91 89 88 88 88 88 88 87 88 90 89 87 84 83 81 32 11 12 18 23 23 23 17 17 16 15 15 15 13 14 15 15 17 16 18 20 23
84 84 85 84 85 89 90 90 91 91 88 88 88 88 88 88 88 89 89 90 88 85 82 82 78 20 12 11 15 19 18 17 16 16 17 16 14 15 12 12 13 16 19 16 16 19 20
81 80 83 84 89 90 91 91 90 90 88 88 88 89 89 89 91 92 92 90 85 80 79 74 26 11 12 30 16 15 15 14 15 15 17 16 16 13 10 15 14 14 13 13 18 15 15
83 82 84 88 91 91 91 90 90 91 90 89 88 89 91 91 92 92 93 90 76 67 44 14 8 10 9 11 11 12 13 13 12 13 14 17 12 10 8 10 15 12 10 10 15 15 17
80 83 85 90 92 92 92 91 91 91 90 90 90 90 90 90 91 92 53 15 15 13 10 5 6 8 8 8 9 10 13 13 12 12 14 10 11 10 8 9 8 8 8 10 10 11 15
87 87 89 91 92 92 92 91 91 91 90 90 90 89 89 90 92 92 48 11 12 11 10 5 4 5 6 7 10 10 11 14 13 14 11 10 11 9 8 8 7 8 8 9 9 10 12
91 90 91 92 92 91 90 91 91 91 90 89 89 88 89 90 90 53 12 12 10 10 9 4 4 4 5 6 10 8 10 12 12 12 11 11 9 9 8 8 7 7 7 8 12 10 10
93 93 92 93 92 90 88 89 91 90 89 88 88 88 89 95 47 8 10 10 8 10 9 4 5 5 4 6 10 8 7 9 10 12 10 10 8 9 9 9 7 8 6 7 8 10 27
91 92 90 88 91 91 88 90 90 89 87 87 88 87 90 98 23 9 11 9 9 10 10 4 4 5 4 7 9 9 7 8 10 9 9 11 10 10 11 9 7 8 7 7 8 9 7
89 90 86 87 92 92 93 90 88 87 87 88 86 87 91 44 25 10 8 9 10 10 9 5 4 6 5 5 6 7 8 8 8 10 9 9 7 8 8 7 7 6 7 8 7 7 9
91 92 93 93 92 93 92 88 87 87 88 87 85 88 78 29 13 12 9 10 12 8 5 4 4 4 5 4 5 6 10 10 12 13 13 10 9 8 8 9 7 7 7 9 9 8 8
89 90 89 90 90 90 90 88 88 88 87 86 86 87 60 21 16 13 11 12 17 6 5 4 5 5 6 4 4 4 8 9 9 10 9 11 11 8 8 9 9 8 6 8 16 10 8
86 84 83 86 88 88 89 88 88 87 86 86 88 17 16 13 13 14 13 12 11 8 6 4 4 6 6 4 4 4 6 7 7 8 11 9 9 6 7 7 8 9 9 5 6 5 7
81 81 79 79 80 85 88 88 87 86 85 84 38 17 12 12 14 13 12 18 7 6 7 7 9 5 5 5 6 5 5 4 5 6 6 8 11 6 6 6 7 7 6 7 6 14 14
78 81 84 75 78 83 85 84 85 85 85 84 35 14 14 10 12 13 13 9 7 5 8 9 8 7 5 6 6 6 5 4 4 5 6 7 7 8 6 9 9 8 8 8 5 5 9
76 81 82 82 81 83 82 82 83 85 87 46 21 16 14 12 14 10 10 8 15 6 6 8 9 8 8 7 7 6 7 4 3 4 6 6 6 8 7 6 6 6 7 6 8 11 7
74 77 78 77 79 80 81 82 82 84 86 48 24 16 12 13 14 10 8 8 7 8 8 8 8 9 8 8 10 8 7 5 3 4 6 5 7 8 7 6 6 7 6 6 5 5 9
72 72 74 77 78 78 81 83 84 82 82 56 27 18 14 16 13 15 12 13 15 10 9 7 8 7 9 10 7 10 8 6 5 4 50 16 5 6 7 8 7 9 7 6 5 7 7
72 72 72 74 75 78 80 81 83 82 79 55 21 22 24 20 16 17 20 20 20 18 12 10 10 8 9 12 11 10 7 7 6 16 9 5 7 7 5 5 5 6 6 6 6 6 6
72 72 72 74 74 76 79 80 82 82 81 33 26 28 22 20 16 18 23 19 18 15 16 17 14 11 10 10 10 12 10 8 8 7 7 5 8 8 8 5 5 6 5 5 5 5 5
72 73 73 72 72 77 81 83 82 84 70 26 26 22 27 30 15 16 16 18 20 21 21 20 20 18 16 16 11 10 10 8 7 9 11 9 6 8 11 7 6 8 6 6 5 5 5
71 72 73 73 72 76 79 80 83 84 80 39 31 32 30 25 18 18 21 22 23 23 27 22 22 26 20 17 17 15 16 13 12 10 8 12 11 8 8 8 13 6 4 5 6 5 4
71 71 71 74 73 73 74 78 81 83 84 43 34 37 33 30 22 24 22 23 24 26 27 24 20 19 19 21 24 26 23 18 15 12 9 8 10 11 11 9 8 6 6 5 6 7 4
70 70 68 70 70 71 71 72 76 82 85 52 35 39 39 38 23 28 30 29 30 26 24 23 19 15 17 23 26 37 28 19 15 13 8 7 9 11 12 13 13 8 5 4 4 7 5
69 70 70 72 72 72 69 70 72 77 84 61 44 38 48 48 30 26 29 31 31 41 39 29 39 32 23 27 29 26 22 17 16 16 17 13 16 14 14 13 10 7 5 4 10 8 5
75 74 73 74 75 74 71 74 74 74 78 68 43 36 54 56 38 33 29 34 29 29 55 36 36 27 30 42 26 22 21 16 15 13 16 19 19 14 14 16 17 8 8 9 15 13 14
76 76 77 77 76 75 73 72 74 77 79 76 53 36 47 90 43 36 34 30 30 26 31 30 34 46 54 72 66 40 44 18 16 15 11 17 13 15 13 12 23 17 18 18 15 17 17